Time,TemperatureF,DewpointF,PressureIn,WindDirection,WindDirectionDegrees,WindSpeedMPH,WindSpeedGustMPH,Humidity,HourlyPrecipIn,Conditions,Clouds,dailyrainin,SoftwareType,DateUTC
2013-04-13 00:00:00,60.8,29.2,27.25,North,0,0.0,0.0,30,0.00,,,0.00,WUHU216HW,2013-04-13 07:00:00,
2013-04-13 00:05:00,60.8,29.2,27.24,North,0,0.0,0.0,30,0.00,,,0.00,WUHU216HW,2013-04-13 07:05:00,
2013-04-13 00:30:00,59.4,28.7,27.24,NE,45,0.0,0.0,31,0.00,,,0.00,WUHU216HW,2013-04-13 07:30:00,
2013-04-13 00:35:00,59.4,29.4,27.24,NE,45,0.0,0.0,32,0.00,,,0.00,WUHU216HW,2013-04-13 07:35:00,
2013-04-13 01:00:00,58.7,29.5,27.25,North,0,0.0,0.0,33,0.00,,,0.00,WUHU216HW,2013-04-13 08:00:00,
2013-04-13 01:05:00,58.7,29.5,27.25,North,0,0.0,0.0,33,0.00,,,0.00,WUHU216HW,2013-04-13 08:05:00,
2013-04-13 01:10:00,58.7,29.5,27.25,North,0,0.0,0.0,33,0.00,,,0.00,WUHU216HW,2013-04-13 08:10:00,
2013-04-13 01:30:00,58.7,29.5,27.24,NNE,23,0.0,0.0,33,0.00,,,0.00,WUHU216HW,2013-04-13 08:30:00,
2013-04-13 01:35:00,58.7,29.5,27.24,NNE,23,0.0,0.0,33,0.00,,,0.00,WUHU216HW,2013-04-13 08:35:00,
2013-04-13 02:00:00,57.6,29.3,27.24,North,0,0.0,0.0,34,0.00,,,0.00,WUHU216HW,2013-04-13 09:00:00,
2013-04-13 02:05:00,57.4,29.1,27.24,North,0,0.0,0.0,34,0.00,,,0.00,WUHU216HW,2013-04-13 09:05:00,
2013-04-13 02:30:00,57.1,30.2,27.24,NNW,338,0.0,0.0,36,0.00,,,0.00,WUHU216HW,2013-04-13 09:30:00,
2013-04-13 02:35:00,57.1,30.2,27.24,NNW,338,0.0,0.0,36,0.00,,,0.00,WUHU216HW,2013-04-13 09:35:00,
2013-04-13 03:00:00,56.5,29.7,27.24,SE,135,0.4,0.4,36,0.00,,,0.00,WUHU216HW,2013-04-13 10:00:00,
2013-04-13 03:05:00,56.5,29.7,27.24,ESE,113,0.4,0.7,36,0.00,,,0.00,WUHU216HW,2013-04-13 10:05:00,
2013-04-13 03:30:00,55.8,29.0,27.24,NNE,23,0.0,0.0,36,0.00,,,0.00,WUHU216HW,2013-04-13 10:30:00,
2013-04-13 03:35:00,55.8,29.0,27.24,NNE,23,0.0,0.0,36,0.00,,,0.00,WUHU216HW,2013-04-13 10:35:00,
2013-04-13 03:40:00,55.8,29.0,27.24,NNE,23,0.0,0.0,36,0.00,,,0.00,WUHU216HW,2013-04-13 10:40:00,
2013-04-13 04:00:00,54.5,29.4,27.24,NE,45,0.0,0.0,38,0.00,,,0.00,WUHU216HW,2013-04-13 11:00:00,
2013-04-13 04:05:00,54.5,29.4,27.24,NE,45,0.0,0.0,38,0.00,,,0.00,WUHU216HW,2013-04-13 11:05:00,
2013-04-13 04:30:00,52.9,28.5,27.24,NNE,23,0.0,0.0,39,0.00,,,0.00,WUHU216HW,2013-04-13 11:30:00,
2013-04-13 04:35:00,52.9,28.5,27.24,NNE,23,0.0,0.0,39,0.00,,,0.00,WUHU216HW,2013-04-13 11:35:00,
2013-04-13 05:00:00,52.2,29.2,27.24,NE,45,0.0,0.0,41,0.00,,,0.00,WUHU216HW,2013-04-13 12:00:00,
2013-04-13 05:06:00,52.2,29.2,27.24,NE,45,0.4,0.4,41,0.00,,,0.00,WUHU216HW,2013-04-13 12:06:00,
2013-04-13 05:30:00,52.0,29.0,27.25,NE,45,0.0,0.0,41,0.00,,,0.00,WUHU216HW,2013-04-13 12:30:00,
2013-04-13 05:35:00,52.0,29.0,27.25,NE,45,0.0,0.0,41,0.00,,,0.00,WUHU216HW,2013-04-13 12:35:00,
2013-04-13 06:00:00,50.9,29.2,27.26,North,0,0.0,0.0,43,0.00,,,0.00,WUHU216HW,2013-04-13 13:00:00,
2013-04-13 06:05:00,50.9,28.5,27.26,North,0,0.0,0.0,42,0.00,,,0.00,WUHU216HW,2013-04-13 13:05:00,
2013-04-13 06:30:00,50.6,28.8,27.27,NNW,338,0.0,0.0,43,0.00,,,0.00,WUHU216HW,2013-04-13 13:30:00,
2013-04-13 06:35:00,50.6,28.8,27.27,NNW,338,0.0,0.0,43,0.00,,,0.00,WUHU216HW,2013-04-13 13:35:00,
2013-04-13 07:00:00,53.6,31.0,27.28,North,0,0.0,0.0,42,0.00,,,0.00,WUHU216HW,2013-04-13 14:00:00,
2013-04-13 07:05:00,53.6,31.0,27.28,North,0,0.0,0.0,42,0.00,,,0.00,WUHU216HW,2013-04-13 14:05:00,
2013-04-13 07:30:00,57.2,30.3,27.29,NNE,23,0.0,0.0,36,0.00,,,0.00,WUHU216HW,2013-04-13 14:30:00,
2013-04-13 07:35:00,57.2,30.3,27.29,NNE,23,0.0,0.0,36,0.00,,,0.00,WUHU216HW,2013-04-13 14:35:00,
2013-04-13 08:00:00,60.8,30.6,27.29,ENE,68,0.0,0.0,32,0.00,,,0.00,WUHU216HW,2013-04-13 15:00:00,
2013-04-13 08:05:00,60.8,30.6,27.29,ENE,68,0.0,0.0,32,0.00,,,0.00,WUHU216HW,2013-04-13 15:05:00,
2013-04-13 08:30:00,63.7,30.8,27.29,South,180,0.4,0.4,29,0.00,,,0.00,WUHU216HW,2013-04-13 15:30:00,
2013-04-13 08:36:00,63.7,30.8,27.29,SE,135,0.2,0.4,29,0.00,,,0.00,WUHU216HW,2013-04-13 15:36:00,
2013-04-13 09:00:00,66.2,32.1,27.29,WNW,293,0.0,0.0,28,0.00,,,0.00,WUHU216HW,2013-04-13 16:00:00,
2013-04-13 09:05:00,66.4,32.1,27.29,SSE,158,0.4,0.4,28,0.00,,,0.00,WUHU216HW,2013-04-13 16:05:00,
2013-04-13 09:30:00,68.9,31.3,27.28,ESE,113,1.8,1.8,25,0.00,,,0.00,WUHU216HW,2013-04-13 16:30:00,
2013-04-13 09:35:00,68.9,30.2,27.28,ESE,113,1.8,1.8,24,0.00,,,0.00,WUHU216HW,2013-04-13 16:35:00,
2013-04-13 10:00:00,71.1,31.1,27.28,North,0,0.4,0.4,23,0.00,,,0.00,WUHU216HW,2013-04-13 17:00:00,
2013-04-13 10:05:00,71.1,31.1,27.28,NW,315,0.7,0.7,23,0.00,,,0.00,WUHU216HW,2013-04-13 17:05:00,
2013-04-13 10:10:00,71.1,31.1,27.28,NW,315,0.7,0.7,23,0.00,,,0.00,WUHU216HW,2013-04-13 17:10:00,
2013-04-13 10:30:00,73.1,30.8,27.27,West,270,1.1,1.1,21,0.00,,,0.00,WUHU216HW,2013-04-13 17:30:00,
2013-04-13 10:36:00,73.1,30.8,27.27,West,270,1.1,1.1,21,0.00,,,0.00,WUHU216HW,2013-04-13 17:36:00,
2013-04-13 11:00:00,75.2,29.9,27.26,SW,225,1.1,1.1,19,0.00,,,0.00,WUHU216HW,2013-04-13 18:00:00,
2013-04-13 11:05:00,75.2,29.9,27.26,South,180,0.9,1.1,19,0.00,,,0.00,WUHU216HW,2013-04-13 18:05:00,
2013-04-13 11:10:00,75.2,29.9,27.26,South,180,0.9,1.1,19,0.00,,,0.00,WUHU216HW,2013-04-13 18:10:00,
2013-04-13 11:30:00,77.4,29.9,27.25,WSW,248,2.0,2.0,18,0.00,,,0.00,WUHU216HW,2013-04-13 18:30:00,
2013-04-13 11:31:00,77.4,29.9,27.25,West,270,2.2,2.2,18,0.00,,,0.00,WUHU216HW,2013-04-13 18:31:00,
2013-04-13 11:36:00,77.4,29.9,27.25,West,270,2.2,2.2,18,0.00,,,0.00,WUHU216HW,2013-04-13 18:36:00,
2013-04-13 12:00:00,79.4,28.2,27.24,SSW,203,2.7,2.7,16,0.00,,,0.00,WUHU216HW,2013-04-13 19:00:00,
2013-04-13 12:05:00,79.4,26.5,27.24,WNW,293,2.9,2.9,15,0.00,,,0.00,WUHU216HW,2013-04-13 19:05:00,
2013-04-13 12:10:00,79.4,26.5,27.24,WNW,293,2.9,2.9,15,0.00,,,0.00,WUHU216HW,2013-04-13 19:10:00,
2013-04-13 12:30:00,80.5,27.4,27.24,WSW,248,4.0,4.0,15,0.00,,,0.00,WUHU216HW,2013-04-13 19:30:00,
2013-04-13 12:35:00,80.5,27.4,27.24,WSW,248,4.0,4.0,15,0.00,,,0.00,WUHU216HW,2013-04-13 19:35:00,
2013-04-13 12:40:00,80.5,27.4,27.24,WSW,248,4.0,4.0,15,0.00,,,0.00,WUHU216HW,2013-04-13 19:40:00,
2013-04-13 13:00:00,81.9,25.2,27.22,SW,225,6.5,6.5,13,0.00,,,0.00,WUHU216HW,2013-04-13 20:00:00,
2013-04-13 13:05:00,81.9,25.2,27.22,West,270,4.0,6.5,13,0.00,,,0.00,WUHU216HW,2013-04-13 20:05:00,
2013-04-13 13:10:00,81.9,25.2,27.22,West,270,4.0,4.0,13,0.00,,,0.00,WUHU216HW,2013-04-13 20:10:00,
2013-04-13 13:30:00,82.4,24.0,27.22,West,270,4.5,4.5,12,0.00,,,0.00,WUHU216HW,2013-04-13 20:30:00,
2013-04-13 13:35:00,82.4,24.0,27.22,West,270,1.8,4.5,12,0.00,,,0.00,WUHU216HW,2013-04-13 20:35:00,
2013-04-13 13:40:00,82.4,24.0,27.22,West,270,1.8,2.9,12,0.00,,,0.00,WUHU216HW,2013-04-13 20:40:00,
2013-04-13 14:00:00,83.5,24.7,27.21,WSW,248,4.0,4.0,12,0.00,,,0.00,WUHU216HW,2013-04-13 21:00:00,
2013-04-13 14:05:00,83.7,24.9,27.21,West,270,2.2,4.0,12,0.00,,,0.00,WUHU216HW,2013-04-13 21:05:00,
2013-04-13 14:10:00,83.7,24.9,27.21,West,270,2.2,2.2,12,0.00,,,0.00,WUHU216HW,2013-04-13 21:10:00,
2013-04-13 14:30:00,84.2,25.2,27.19,SW,225,3.1,3.1,12,0.00,,,0.00,WUHU216HW,2013-04-13 21:30:00,
2013-04-13 14:35:00,84.2,25.2,27.19,West,270,4.0,4.0,12,0.00,,,0.00,WUHU216HW,2013-04-13 21:35:00,
2013-04-13 14:40:00,84.2,25.2,27.19,West,270,4.0,4.0,12,0.00,,,0.00,WUHU216HW,2013-04-13 21:40:00,
2013-04-13 15:00:00,83.7,24.9,27.19,West,270,4.0,4.0,12,0.00,,,0.00,WUHU216HW,2013-04-13 22:00:00,
2013-04-13 15:05:00,83.7,24.9,27.19,WSW,248,3.4,4.0,12,0.00,,,0.00,WUHU216HW,2013-04-13 22:05:00,
2013-04-13 15:10:00,83.7,24.9,27.19,WSW,248,3.4,4.0,12,0.00,,,0.00,WUHU216HW,2013-04-13 22:10:00,
2013-04-13 15:30:00,84.1,23.4,27.17,WNW,293,4.3,4.3,11,0.00,,,0.00,WUHU216HW,2013-04-13 22:30:00,
2013-04-13 15:35:00,84.1,23.4,27.17,NW,315,4.7,4.7,11,0.00,,,0.00,WUHU216HW,2013-04-13 22:35:00,
2013-04-13 15:40:00,84.1,23.4,27.17,NW,315,4.7,4.7,11,0.00,,,0.00,WUHU216HW,2013-04-13 22:40:00,
2013-04-13 16:00:00,84.1,23.4,27.17,NW,315,2.5,2.5,11,0.00,,,0.00,WUHU216HW,2013-04-13 23:00:00,
2013-04-13 16:05:00,84.1,23.4,27.17,NW,315,4.7,4.7,11,0.00,,,0.00,WUHU216HW,2013-04-13 23:05:00,
2013-04-13 16:10:00,84.1,23.4,27.17,NW,315,4.7,4.7,11,0.00,,,0.00,WUHU216HW,2013-04-13 23:10:00,
2013-04-13 16:30:00,84.2,23.5,27.16,WSW,248,4.0,4.0,11,0.00,,,0.00,WUHU216HW,2013-04-13 23:30:00,
2013-04-13 16:35:00,84.2,23.5,27.16,WSW,248,4.5,4.5,11,0.00,,,0.00,WUHU216HW,2013-04-13 23:35:00,
2013-04-13 16:40:00,84.2,23.5,27.16,WSW,248,4.5,4.5,11,0.00,,,0.00,WUHU216HW,2013-04-13 23:40:00,
2013-04-13 17:00:00,84.1,23.4,27.15,WSW,248,1.3,1.3,11,0.00,,,0.00,WUHU216HW,2013-04-14 00:00:00,
2013-04-13 17:05:00,84.1,23.4,27.15,West,270,2.5,2.5,11,0.00,,,0.00,WUHU216HW,2013-04-14 00:05:00,
2013-04-13 17:10:00,84.1,23.4,27.15,West,270,2.5,2.5,11,0.00,,,0.00,WUHU216HW,2013-04-14 00:10:00,
2013-04-13 17:30:00,83.9,23.2,27.15,West,270,1.8,1.8,11,0.00,,,0.00,WUHU216HW,2013-04-14 00:30:00,
2013-04-13 17:35:00,83.7,23.1,27.15,WSW,248,2.0,2.0,11,0.00,,,0.00,WUHU216HW,2013-04-14 00:35:00,
2013-04-13 18:00:00,83.5,23.0,27.16,West,270,2.9,2.9,11,0.00,,,0.00,WUHU216HW,2013-04-14 01:00:00,
2013-04-13 18:05:00,83.5,23.0,27.16,West,270,2.9,2.9,11,0.00,,,0.00,WUHU216HW,2013-04-14 01:05:00,
2013-04-13 18:10:00,83.5,23.0,27.16,West,270,2.9,2.9,11,0.00,,,0.00,WUHU216HW,2013-04-14 01:10:00,
2013-04-13 18:30:00,82.3,22.1,27.16,WNW,293,2.0,2.0,11,0.00,,,0.00,WUHU216HW,2013-04-14 01:30:00,
2013-04-13 18:35:00,82.3,22.1,27.16,West,270,2.2,2.2,11,0.00,,,0.00,WUHU216HW,2013-04-14 01:35:00,
2013-04-13 18:40:00,82.3,22.1,27.16,West,270,2.2,2.2,11,0.00,,,0.00,WUHU216HW,2013-04-14 01:40:00,
2013-04-13 19:00:00,79.2,21.2,27.16,WSW,248,1.3,1.3,12,0.00,,,0.00,WUHU216HW,2013-04-14 02:00:00,
2013-04-13 19:05:00,79.2,21.2,27.16,SW,225,1.3,1.3,12,0.00,,,0.00,WUHU216HW,2013-04-14 02:05:00,
2013-04-13 19:10:00,79.2,21.2,27.16,SW,225,1.3,1.3,12,0.00,,,0.00,WUHU216HW,2013-04-14 02:10:00,
2013-04-13 19:30:00,77.4,21.6,27.17,West,270,1.6,1.6,13,0.00,,,0.00,WUHU216HW,2013-04-14 02:30:00,
2013-04-13 19:35:00,77.4,21.6,27.17,WSW,248,1.1,1.6,13,0.00,,,0.00,WUHU216HW,2013-04-14 02:35:00,
2013-04-13 20:00:00,76.1,23.9,27.17,WSW,248,2.7,2.7,15,0.00,,,0.00,WUHU216HW,2013-04-14 03:00:00,
2013-04-13 20:05:00,76.0,23.8,27.17,West,270,2.0,2.7,15,0.00,,,0.00,WUHU216HW,2013-04-14 03:05:00,
2013-04-13 20:10:00,76.0,23.8,27.17,West,270,2.0,2.7,15,0.00,,,0.00,WUHU216HW,2013-04-14 03:10:00,
2013-04-13 20:30:00,74.0,24.0,27.19,West,270,1.3,1.3,16,0.00,,,0.00,WUHU216HW,2013-04-14 03:30:00,
2013-04-13 20:35:00,74.2,24.0,27.19,West,270,0.9,1.3,16,0.00,,,0.00,WUHU216HW,2013-04-14 03:35:00,
2013-04-13 20:40:00,74.2,24.0,27.19,West,270,0.9,1.3,16,0.00,,,0.00,WUHU216HW,2013-04-14 03:40:00,
2013-04-13 21:00:00,73.3,25.0,27.19,WNW,293,1.6,1.6,17,0.00,,,0.00,WUHU216HW,2013-04-14 04:00:00,
2013-04-13 21:05:00,73.3,25.0,27.19,WNW,293,1.6,1.6,17,0.00,,,0.00,WUHU216HW,2013-04-14 04:05:00,
2013-04-13 21:30:00,72.7,26.2,27.21,WSW,248,1.1,1.1,18,0.00,,,0.00,WUHU216HW,2013-04-14 04:30:00,
2013-04-13 21:35:00,72.7,26.2,27.21,West,270,0.9,1.1,18,0.00,,,0.00,WUHU216HW,2013-04-14 04:35:00,
2013-04-13 21:40:00,72.7,26.2,27.21,West,270,0.9,1.1,18,0.00,,,0.00,WUHU216HW,2013-04-14 04:40:00,
2013-04-13 22:00:00,71.5,28.3,27.21,West,270,2.5,2.5,20,0.00,,,0.00,WUHU216HW,2013-04-14 05:00:00,
2013-04-13 22:05:00,71.6,28.4,27.21,West,270,1.8,2.5,20,0.00,,,0.00,WUHU216HW,2013-04-14 05:05:00,
2013-04-13 22:10:00,71.6,28.4,27.21,West,270,1.8,2.5,20,0.00,,,0.00,WUHU216HW,2013-04-14 05:10:00,
2013-04-13 22:30:00,70.6,29.6,27.22,West,270,1.6,1.6,22,0.00,,,0.00,WUHU216HW,2013-04-14 05:30:00,
2013-04-13 22:35:00,70.6,28.6,27.22,WSW,248,0.9,1.6,21,0.00,,,0.00,WUHU216HW,2013-04-14 05:35:00,
2013-04-13 22:40:00,70.6,28.6,27.22,WSW,248,0.9,0.9,21,0.00,,,0.00,WUHU216HW,2013-04-14 05:40:00,
2013-04-13 23:00:00,70.0,29.2,27.22,SSW,203,0.2,0.2,22,0.00,,,0.00,WUHU216HW,2013-04-14 06:00:00,
2013-04-13 23:05:00,70.0,29.2,27.22,SSW,203,0.0,0.2,22,0.00,,,0.00,WUHU216HW,2013-04-14 06:05:00,
2013-04-13 23:30:00,68.8,29.2,27.22,NW,315,0.0,0.0,23,0.00,,,0.00,WUHU216HW,2013-04-14 06:30:00,
2013-04-13 23:35:00,68.8,29.2,27.22,NW,315,0.0,0.0,23,0.00,,,0.00,WUHU216HW,2013-04-14 06:35:00,
2013-04-13 23:40:00,68.8,29.2,27.22,NW,315,0.0,0.0,23,0.00,,,0.00,WUHU216HW,2013-04-14 06:40:00,